Time,TemperatureF,DewpointF,PressureIn,WindDirection,WindDirectionDegrees,WindSpeedMPH,WindSpeedGustMPH,Humidity,HourlyPrecipIn,Conditions,Clouds,dailyrainin,SoftwareType,DateUTC
2013-04-29 00:02:00,69.0,-99.9,30.00,WSW,239,0.0,0.0,-999,0.00,,,0.00,,2013-04-29 07:02:00,
2013-04-29 00:11:00,69.0,-99.9,30.00,WSW,239,0.0,0.0,-999,0.00,,,0.00,,2013-04-29 07:11:00,
2013-04-29 00:22:00,67.0,-99.9,30.00,WSW,239,0.0,0.0,-999,0.00,,,0.00,,2013-04-29 07:22:00,
2013-04-29 00:32:00,65.0,-99.9,30.01,WSW,239,0.0,0.0,-999,0.00,,,0.00,,2013-04-29 07:32:00,
2013-04-29 00:42:00,65.0,-99.9,30.01,WSW,239,0.0,0.0,-999,0.00,,,0.00,,2013-04-29 07:42:00,
2013-04-29 00:52:00,65.0,-99.9,30.01,WSW,239,0.0,0.0,-999,0.00,,,0.00,,2013-04-29 07:52:00,
2013-04-29 01:03:00,64.0,-99.9,30.01,WSW,239,0.0,0.0,-999,0.00,,,0.00,,2013-04-29 08:03:00,
2013-04-29 01:11:00,64.0,-99.9,30.01,WSW,239,0.0,0.0,-999,0.00,,,0.00,,2013-04-29 08:11:00,
2013-04-29 01:22:00,63.0,-99.9,30.01,WSW,239,0.0,0.0,-999,0.00,,,0.00,,2013-04-29 08:22:00,
2013-04-29 01:32:00,65.0,-99.9,30.01,WSW,239,0.0,0.0,-999,0.00,,,0.00,,2013-04-29 08:32:00,
2013-04-29 01:42:00,65.0,-99.9,30.01,WSW,239,0.0,0.0,-999,0.00,,,0.00,,2013-04-29 08:42:00,
2013-04-29 01:52:00,63.0,-99.9,30.01,WSW,239,0.0,0.0,-999,0.00,,,0.00,,2013-04-29 08:52:00,
2013-04-29 02:02:00,62.0,-99.9,30.01,WSW,239,0.0,0.0,-999,0.00,,,0.00,,2013-04-29 09:02:00,
2013-04-29 02:12:00,62.0,-99.9,30.01,WSW,239,0.0,0.0,-999,0.00,,,0.00,,2013-04-29 09:12:00,
2013-04-29 02:22:00,60.0,-99.9,30.01,WSW,239,0.0,0.0,-999,0.00,,,0.00,,2013-04-29 09:22:00,
2013-04-29 02:33:00,60.0,-99.9,30.01,SW,232,0.0,3.0,-999,0.00,,,0.00,,2013-04-29 09:33:00,
2013-04-29 02:42:00,60.0,-99.9,30.01,SW,232,0.0,3.0,-999,0.00,,,0.00,,2013-04-29 09:42:00,
2013-04-29 02:53:00,58.0,-99.9,30.01,South,174,0.0,2.0,-999,0.00,,,0.00,,2013-04-29 09:53:00,
2013-04-29 03:03:00,59.0,-99.9,30.00,South,188,0.0,0.0,-999,0.00,,,0.00,,2013-04-29 10:03:00,
2013-04-29 03:12:00,59.0,-99.9,30.00,South,188,0.0,0.0,-999,0.00,,,0.00,,2013-04-29 10:12:00,
2013-04-29 03:23:00,58.0,-99.9,30.00,South,188,0.0,0.0,-999,0.00,,,0.00,,2013-04-29 10:23:00,
2013-04-29 03:32:00,59.0,-99.9,30.00,South,188,0.0,0.0,-999,0.00,,,0.00,,2013-04-29 10:32:00,
2013-04-29 03:42:00,59.0,-99.9,30.00,South,188,0.0,0.0,-999,0.00,,,0.00,,2013-04-29 10:42:00,
2013-04-29 03:52:00,59.0,-99.9,30.00,South,188,0.0,0.0,-999,0.00,,,0.00,,2013-04-29 10:52:00,
2013-04-29 04:03:00,59.0,-99.9,30.01,South,188,0.0,0.0,-999,0.00,,,0.00,,2013-04-29 11:03:00,
2013-04-29 04:12:00,59.0,-99.9,30.01,South,188,0.0,0.0,-999,0.00,,,0.00,,2013-04-29 11:12:00,
2013-04-29 04:22:00,56.0,-99.9,30.01,South,188,0.0,0.0,-999,0.00,,,0.00,,2013-04-29 11:22:00,
2013-04-29 04:32:00,56.0,-99.9,30.01,South,188,0.0,0.0,-999,0.00,,,0.00,,2013-04-29 11:32:00,
2013-04-29 04:42:00,56.0,-99.9,30.01,South,188,0.0,0.0,-999,0.00,,,0.00,,2013-04-29 11:42:00,
2013-04-29 04:52:00,55.0,-99.9,30.01,South,188,0.0,0.0,-999,0.00,,,0.00,,2013-04-29 11:52:00,
2013-04-29 05:01:00,55.0,-99.9,30.01,SSE,157,0.0,0.0,-999,0.00,,,0.00,,2013-04-29 12:01:00,
2013-04-29 05:12:00,55.0,-99.9,30.01,SSE,157,0.0,0.0,-999,0.00,,,0.00,,2013-04-29 12:12:00,
2013-04-29 05:22:00,54.0,-99.9,30.01,SSE,157,0.0,0.0,-999,0.00,,,0.00,,2013-04-29 12:22:00,
2013-04-29 05:32:00,54.0,-99.9,30.02,SSE,157,0.0,0.0,-999,0.00,,,0.00,,2013-04-29 12:32:00,
2013-04-29 05:42:00,54.0,-99.9,30.02,SSE,157,0.0,0.0,-999,0.00,,,0.00,,2013-04-29 12:42:00,
2013-04-29 05:52:00,52.0,-99.9,30.02,SSE,157,0.0,0.0,-999,0.00,,,0.00,,2013-04-29 12:52:00,
2013-04-29 06:01:00,52.0,-99.9,30.03,SSE,157,0.0,0.0,-999,0.00,,,0.00,,2013-04-29 13:01:00,
2013-04-29 06:11:00,52.0,-99.9,30.03,SSE,157,0.0,0.0,-999,0.00,,,0.00,,2013-04-29 13:11:00,
2013-04-29 06:22:00,53.0,-99.9,30.03,SSE,157,0.0,0.0,-999,0.00,,,0.00,,2013-04-29 13:22:00,
2013-04-29 06:32:00,53.0,-99.9,30.04,SSE,157,0.0,0.0,-999,0.00,,,0.00,,2013-04-29 13:32:00,
2013-04-29 06:42:00,53.0,-99.9,30.04,SSE,157,0.0,0.0,-999,0.00,,,0.00,,2013-04-29 13:42:00,
2013-04-29 06:52:00,55.0,-99.9,30.04,SSE,157,0.0,0.0,-999,0.00,,,0.00,,2013-04-29 13:52:00,
2013-04-29 07:02:00,55.0,-99.9,30.04,SSE,157,0.0,0.0,-999,0.00,,,0.00,,2013-04-29 14:02:00,
2013-04-29 07:12:00,55.0,-99.9,30.04,SSE,157,0.0,0.0,-999,0.00,,,0.00,,2013-04-29 14:12:00,
2013-04-29 07:22:00,57.0,-99.9,30.04,SSE,157,0.0,0.0,-999,0.00,,,0.00,,2013-04-29 14:22:00,
2013-04-29 07:32:00,58.0,-99.9,30.05,South,180,0.0,5.0,-999,0.00,,,0.00,,2013-04-29 14:32:00,
2013-04-29 07:42:00,58.0,-99.9,30.05,South,180,0.0,5.0,-999,0.00,,,0.00,,2013-04-29 14:42:00,
2013-04-29 07:52:00,59.0,-99.9,30.05,South,189,0.0,0.0,-999,0.00,,,0.00,,2013-04-29 14:52:00,
2013-04-29 08:01:00,61.0,-99.9,30.05,SSW,201,0.0,5.0,-999,0.00,,,0.00,,2013-04-29 15:01:00,
2013-04-29 08:12:00,61.0,-99.9,30.05,SSW,201,0.0,5.0,-999,0.00,,,0.00,,2013-04-29 15:12:00,
2013-04-29 08:22:00,63.0,-99.9,30.05,South,172,0.0,0.0,-999,0.00,,,0.00,,2013-04-29 15:22:00,
2013-04-29 08:33:00,66.0,-99.9,30.05,South,170,0.0,0.0,-999,0.00,,,0.00,,2013-04-29 15:33:00,
2013-04-29 08:43:00,66.0,-99.9,30.05,South,170,0.0,0.0,-999,0.00,,,0.00,,2013-04-29 15:43:00,
2013-04-29 08:53:00,68.0,-99.9,30.05,South,170,0.0,0.0,-999,0.00,,,0.00,,2013-04-29 15:53:00,
2013-04-29 09:03:00,70.0,-99.9,30.04,South,170,0.0,0.0,-999,0.00,,,0.00,,2013-04-29 16:03:00,
2013-04-29 09:13:00,70.0,-99.9,30.04,South,170,0.0,0.0,-999,0.00,,,0.00,,2013-04-29 16:13:00,
2013-04-29 09:23:00,72.0,-99.9,30.04,South,170,0.0,0.0,-999,0.00,,,0.00,,2013-04-29 16:23:00,
2013-04-29 09:33:00,74.0,-99.9,30.03,South,170,0.0,0.0,-999,0.00,,,0.00,,2013-04-29 16:33:00,
2013-04-29 09:42:00,74.0,-99.9,30.03,South,170,0.0,0.0,-999,0.00,,,0.00,,2013-04-29 16:42:00,
2013-04-29 09:52:00,76.0,-99.9,30.03,South,170,0.0,0.0,-999,0.00,,,0.00,,2013-04-29 16:52:00,
2013-04-29 10:02:00,78.0,-99.9,30.03,South,170,0.0,0.0,-999,0.00,,,0.00,,2013-04-29 17:02:00,
2013-04-29 10:12:00,78.0,-99.9,30.03,South,170,0.0,0.0,-999,0.00,,,0.00,,2013-04-29 17:12:00,
2013-04-29 10:23:00,80.0,-99.9,30.02,South,170,0.0,0.0,-999,0.00,,,0.00,,2013-04-29 17:23:00,
2013-04-29 10:32:00,80.0,-99.9,30.02,South,170,0.0,0.0,-999,0.00,,,0.00,,2013-04-29 17:32:00,
2013-04-29 10:42:00,80.0,-99.9,30.02,South,170,0.0,0.0,-999,0.00,,,0.00,,2013-04-29 17:42:00,
2013-04-29 10:52:00,81.0,-99.9,30.02,South,170,0.0,0.0,-999,0.00,,,0.00,,2013-04-29 17:52:00,
2013-04-29 11:01:00,84.0,-99.9,30.01,NE,37,0.0,6.0,-999,0.00,,,0.00,,2013-04-29 18:01:00,
2013-04-29 11:13:00,84.0,-99.9,30.01,NE,37,0.0,6.0,-999,0.00,,,0.00,,2013-04-29 18:13:00,
2013-04-29 11:22:00,85.0,-99.9,30.01,NNE,12,2.0,6.0,-999,0.00,,,0.00,,2013-04-29 18:22:00,
2013-04-29 11:32:00,85.0,-99.9,30.00,SSW,203,4.0,7.0,-999,0.00,,,0.00,,2013-04-29 18:32:00,
2013-04-29 11:42:00,85.0,-99.9,30.00,SSW,203,4.0,7.0,-999,0.00,,,0.00,,2013-04-29 18:42:00,
2013-04-29 11:52:00,86.0,-99.9,29.99,SSE,154,0.0,0.0,-999,0.00,,,0.00,,2013-04-29 18:52:00,
2013-04-29 12:01:00,85.0,-99.9,29.99,North,354,2.0,5.0,-999,0.00,,,0.00,,2013-04-29 19:01:00,
2013-04-29 12:12:00,85.0,-99.9,29.99,North,354,2.0,5.0,-999,0.00,,,0.00,,2013-04-29 19:12:00,
2013-04-29 12:22:00,87.0,-99.9,29.98,WSW,247,5.0,10.0,-999,0.00,,,0.00,,2013-04-29 19:22:00,
2013-04-29 12:32:00,86.0,-99.9,29.98,South,188,1.0,3.0,-999,0.00,,,0.00,,2013-04-29 19:32:00,
2013-04-29 12:42:00,86.0,-99.9,29.98,South,188,1.0,3.0,-999,0.00,,,0.00,,2013-04-29 19:42:00,
2013-04-29 12:52:00,88.0,-99.9,29.97,WSW,250,1.0,13.0,-999,0.00,,,0.00,,2013-04-29 19:52:00,
2013-04-29 13:02:00,89.0,-99.9,29.96,ENE,68,2.0,7.0,-999,0.00,,,0.00,,2013-04-29 20:02:00,
2013-04-29 13:12:00,89.0,-99.9,29.96,ENE,68,2.0,7.0,-999,0.00,,,0.00,,2013-04-29 20:12:00,
2013-04-29 13:22:00,89.0,-99.9,29.95,NE,42,3.0,7.0,-999,0.00,,,0.00,,2013-04-29 20:22:00,
2013-04-29 13:32:00,88.0,-99.9,29.95,WNW,302,3.0,12.0,-999,0.00,,,0.00,,2013-04-29 20:32:00,
2013-04-29 13:43:00,88.0,-99.9,29.95,WNW,302,3.0,12.0,-999,0.00,,,0.00,,2013-04-29 20:43:00,
2013-04-29 13:52:00,88.0,-99.9,29.94,North,2,5.0,13.0,-999,0.00,,,0.00,,2013-04-29 20:52:00,
2013-04-29 14:02:00,89.0,-99.9,29.93,WSW,240,1.0,8.0,-999,0.00,,,0.00,,2013-04-29 21:02:00,
2013-04-29 14:11:00,89.0,-99.9,29.93,WSW,240,1.0,8.0,-999,0.00,,,0.00,,2013-04-29 21:11:00,
2013-04-29 14:22:00,89.0,-99.9,29.93,North,4,6.0,0.0,-999,0.00,,,0.00,,2013-04-29 21:22:00,
2013-04-29 14:33:00,89.0,-99.9,29.93,NW,312,2.0,10.0,-999,0.00,,,0.00,,2013-04-29 21:33:00,
2013-04-29 14:43:00,89.0,-99.9,29.93,NW,312,2.0,10.0,-999,0.00,,,0.00,,2013-04-29 21:43:00,
2013-04-29 14:53:00,89.0,-99.9,29.92,NNW,343,0.0,9.0,-999,0.00,,,0.00,,2013-04-29 21:53:00,
2013-04-29 15:03:00,89.0,-99.9,29.92,NNW,330,4.0,8.0,-999,0.00,,,0.00,,2013-04-29 22:03:00,
2013-04-29 15:13:00,89.0,-99.9,29.92,NNW,330,4.0,8.0,-999,0.00,,,0.00,,2013-04-29 22:13:00,
2013-04-29 15:23:00,90.0,-99.9,29.91,North,355,6.0,10.0,-999,0.00,,,0.00,,2013-04-29 22:23:00,
2013-04-29 15:33:00,90.0,-99.9,29.91,NNW,331,4.0,5.0,-999,0.00,,,0.00,,2013-04-29 22:33:00,
2013-04-29 15:42:00,90.0,-99.9,29.91,NNW,331,4.0,5.0,-999,0.00,,,0.00,,2013-04-29 22:42:00,
2013-04-29 15:53:00,91.0,-99.9,29.90,SW,236,0.0,5.0,-999,0.00,,,0.00,,2013-04-29 22:53:00,
2013-04-29 16:02:00,90.0,-99.9,29.89,WNW,285,0.0,0.0,-999,0.00,,,0.00,,2013-04-29 23:02:00,
2013-04-29 16:12:00,90.0,-99.9,29.89,WNW,285,0.0,0.0,-999,0.00,,,0.00,,2013-04-29 23:12:00,
2013-04-29 16:22:00,90.0,-99.9,29.89,West,271,0.0,0.0,-999,0.00,,,0.00,,2013-04-29 23:22:00,
2013-04-29 16:32:00,90.0,-99.9,29.89,SW,225,0.0,0.0,-999,0.00,,,0.00,,2013-04-29 23:32:00,
2013-04-29 16:42:00,90.0,-99.9,29.89,SW,225,0.0,0.0,-999,0.00,,,0.00,,2013-04-29 23:42:00,
2013-04-29 16:53:00,91.0,-99.9,29.88,NW,307,2.0,6.0,-999,0.00,,,0.00,,2013-04-29 23:53:00,
2013-04-29 17:01:00,90.0,-99.9,29.88,West,279,2.0,4.0,-999,0.00,,,0.00,,2013-04-30 00:01:00,
2013-04-29 17:11:00,90.0,-99.9,29.88,West,279,2.0,4.0,-999,0.00,,,0.00,,2013-04-30 00:11:00,
2013-04-29 17:22:00,91.0,-99.9,29.88,NE,37,0.0,0.0,-999,0.00,,,0.00,,2013-04-30 00:22:00,
2013-04-29 17:32:00,91.0,-99.9,29.88,SW,223,0.0,0.0,-999,0.00,,,0.00,,2013-04-30 00:32:00,
2013-04-29 17:42:00,91.0,-99.9,29.88,SW,223,0.0,0.0,-999,0.00,,,0.00,,2013-04-30 00:42:00,
2013-04-29 17:52:00,90.0,-99.9,29.87,WSW,243,0.0,0.0,-999,0.00,,,0.00,,2013-04-30 00:52:00,
2013-04-29 18:02:00,90.0,-99.9,29.87,WSW,239,1.0,0.0,-999,0.00,,,0.00,,2013-04-30 01:02:00,
2013-04-29 18:11:00,90.0,-99.9,29.87,WSW,239,1.0,0.0,-999,0.00,,,0.00,,2013-04-30 01:11:00,
2013-04-29 18:22:00,91.0,-99.9,29.87,WNW,285,0.0,0.0,-999,0.00,,,0.00,,2013-04-30 01:22:00,
2013-04-29 18:32:00,87.0,-99.9,29.87,West,264,3.0,0.0,-999,0.00,,,0.00,,2013-04-30 01:32:00,
2013-04-29 18:42:00,87.0,-99.9,29.87,West,264,3.0,0.0,-999,0.00,,,0.00,,2013-04-30 01:42:00,
2013-04-29 18:52:00,85.0,-99.9,29.87,West,260,0.0,0.0,-999,0.00,,,0.00,,2013-04-30 01:52:00,
2013-04-29 19:01:00,84.0,-99.9,29.88,West,260,0.0,0.0,-999,0.00,,,0.00,,2013-04-30 02:01:00,
2013-04-29 19:11:00,83.0,-99.9,29.88,West,260,0.0,0.0,-999,0.00,,,0.00,,2013-04-30 02:11:00,
2013-04-29 19:21:00,83.0,-99.9,29.88,West,260,0.0,0.0,-999,0.00,,,0.00,,2013-04-30 02:21:00,
2013-04-29 19:32:00,80.0,-99.9,29.88,West,260,0.0,0.0,-999,0.00,,,0.00,,2013-04-30 02:32:00,
2013-04-29 19:42:00,80.0,-99.9,29.88,West,260,0.0,0.0,-999,0.00,,,0.00,,2013-04-30 02:42:00,
2013-04-29 19:52:00,80.0,-99.9,29.88,West,260,0.0,0.0,-999,0.00,,,0.00,,2013-04-30 02:52:00,
2013-04-29 20:01:00,79.0,-99.9,29.88,West,260,0.0,0.0,-999,0.00,,,0.00,,2013-04-30 03:01:00,
2013-04-29 20:11:00,78.0,-99.9,29.89,West,260,0.0,0.0,-999,0.00,,,0.00,,2013-04-30 03:11:00,
2013-04-29 20:22:00,78.0,-99.9,29.89,West,260,0.0,0.0,-999,0.00,,,0.00,,2013-04-30 03:22:00,
2013-04-29 20:33:00,78.0,-99.9,29.89,West,260,0.0,0.0,-999,0.00,,,0.00,,2013-04-30 03:33:00,
2013-04-29 20:43:00,78.0,-99.9,29.89,West,260,0.0,0.0,-999,0.00,,,0.00,,2013-04-30 03:43:00,
2013-04-29 20:53:00,77.0,-99.9,29.89,West,260,0.0,0.0,-999,0.00,,,0.00,,2013-04-30 03:53:00,
2013-04-29 21:02:00,77.0,-99.9,29.91,West,260,0.0,0.0,-999,0.00,,,0.00,,2013-04-30 04:02:00,
2013-04-29 21:12:00,75.0,-99.9,29.91,West,260,0.0,0.0,-999,0.00,,,0.00,,2013-04-30 04:12:00,
2013-04-29 21:22:00,75.0,-99.9,29.91,West,260,0.0,0.0,-999,0.00,,,0.00,,2013-04-30 04:22:00,
2013-04-29 21:32:00,73.0,-99.9,29.91,West,260,0.0,0.0,-999,0.00,,,0.00,,2013-04-30 04:32:00,
2013-04-29 21:42:00,73.0,-99.9,29.91,West,260,0.0,0.0,-999,0.00,,,0.00,,2013-04-30 04:42:00,
2013-04-29 21:52:00,74.0,-99.9,29.91,West,260,0.0,0.0,-999,0.00,,,0.00,,2013-04-30 04:52:00,
2013-04-29 22:02:00,73.0,-99.9,29.91,West,260,0.0,0.0,-999,0.00,,,0.00,,2013-04-30 05:02:00,
2013-04-29 22:12:00,73.0,-99.9,29.91,West,260,0.0,0.0,-999,0.00,,,0.00,,2013-04-30 05:12:00,
2013-04-29 22:22:00,72.0,-99.9,29.91,West,260,0.0,0.0,-999,0.00,,,0.00,,2013-04-30 05:22:00,
2013-04-29 22:31:00,70.0,-99.9,29.91,West,260,0.0,0.0,-999,0.00,,,0.00,,2013-04-30 05:31:00,
2013-04-29 22:42:00,70.0,-99.9,29.91,West,260,0.0,0.0,-999,0.00,,,0.00,,2013-04-30 05:42:00,
2013-04-29 22:51:00,73.0,-99.9,29.92,West,260,0.0,0.0,-999,0.00,,,0.00,,2013-04-30 05:51:00,
2013-04-29 23:02:00,73.0,-99.9,29.92,West,260,0.0,0.0,-999,0.00,,,0.00,,2013-04-30 06:02:00,
2013-04-29 23:12:00,74.0,-99.9,29.93,West,260,0.0,0.0,-999,0.00,,,0.00,,2013-04-30 06:12:00,
2013-04-29 23:21:00,74.0,-99.9,29.93,West,260,0.0,0.0,-999,0.00,,,0.00,,2013-04-30 06:21:00,
2013-04-29 23:32:00,73.0,-99.9,29.93,WSW,239,0.0,0.0,-999,0.00,,,0.00,,2013-04-30 06:32:00,
2013-04-29 23:42:00,73.0,-99.9,29.93,WSW,239,0.0,0.0,-999,0.00,,,0.00,,2013-04-30 06:42:00,
2013-04-29 23:52:00,73.0,-99.9,29.93,WSW,258,0.0,4.0,-999,0.00,,,0.00,,2013-04-30 06:52:00,